TimeCDT,TemperatureF,Dew PointF,Humidity,Sea Level PressureIn,VisibilityMPH,Wind Direction,Wind SpeedMPH,Gust SpeedMPH,PrecipitationIn,Events,Conditions,WindDirDegrees,DateUTC
12:53 AM,77.0,72.0,84,29.93,10.0,South,13.8,-,N/A,,Mostly Cloudy,170,2012-10-14 05:53:00
1:00 AM,77.0,71.6,83,29.95,10.0,South,12.7,19.6,N/A,,Mostly Cloudy,180,2012-10-14 06:00:00
1:53 AM,77.0,72.0,84,29.93,10.0,South,13.8,-,N/A,,Overcast,180,2012-10-14 06:53:00
2:33 AM,77.0,71.6,83,29.92,10.0,South,17.3,24.2,N/A,,Partly Cloudy,180,2012-10-14 07:33:00
2:53 AM,77.0,71.1,82,29.94,10.0,SSW,13.8,-,N/A,,Clear,200,2012-10-14 07:53:00
3:53 AM,75.9,72.0,87,29.93,9.0,South,9.2,-,0.01,Rain,Light Rain,190,2012-10-14 08:53:00
4:53 AM,75.9,72.0,87,29.95,10.0,SW,8.1,-,0.00,,Scattered Clouds,220,2012-10-14 09:53:00
5:17 AM,75.2,71.6,89,29.99,9.0,SW,8.1,-,0.01,Rain-Thunderstorm,Light Rain,230,2012-10-14 10:17:00
5:45 AM,71.6,69.8,94,29.98,10.0,NNW,27.6,34.5,0.10,Rain-Thunderstorm,Light Thunderstorms and Rain,340,2012-10-14 10:45:00
5:53 AM,69.1,66.9,93,30.01,3.0,NNW,16.1,34.5,0.25,Rain-Thunderstorm,Thunderstorms and Rain,330,2012-10-14 10:53:00
5:55 AM,69.8,66.2,88,30.02,1.5,NNW,16.1,-,0.16,Rain-Thunderstorm,Heavy Thunderstorms and Rain,340,2012-10-14 10:55:00
6:01 AM,69.8,69.8,100,30.02,0.5,Variable,5.8,18.4,0.62,Fog-Rain-Thunderstorm,Heavy Thunderstorms and Rain,0,2012-10-14 11:01:00
6:08 AM,71.6,69.8,94,30.01,0.8,West,4.6,-,0.74,Rain-Thunderstorm,Heavy Thunderstorms and Rain,270,2012-10-14 11:08:00
6:12 AM,71.6,69.8,94,30.02,2.5,West,10.4,-,0.76,Rain-Thunderstorm,Heavy Thunderstorms and Rain,280,2012-10-14 11:12:00
6:18 AM,71.6,68.0,88,30.01,6.0,West,4.6,-,0.76,Rain-Thunderstorm,Light Thunderstorms and Rain,260,2012-10-14 11:18:00
6:53 AM,70.0,68.0,93,30.01,10.0,South,9.2,-,0.76,Thunderstorm,Scattered Clouds,180,2012-10-14 11:53:00
7:01 AM,69.8,68.0,94,30.03,10.0,South,8.1,-,N/A,Thunderstorm,Mostly Cloudy,170,2012-10-14 12:01:00
7:36 AM,69.8,69.8,100,30.03,10.0,SSW,4.6,-,N/A,,Overcast,200,2012-10-14 12:36:00
7:53 AM,71.1,69.1,93,30.01,10.0,Calm,Calm,-,N/A,,Overcast,0,2012-10-14 12:53:00
8:53 AM,73.9,72.0,93,30.01,10.0,SE,6.9,-,N/A,,Partly Cloudy,140,2012-10-14 13:53:00
9:53 AM,75.0,71.1,87,30.05,10.0,SE,3.5,-,N/A,,Mostly Cloudy,140,2012-10-14 14:53:00
10:07 AM,75.2,71.6,89,30.07,10.0,SSE,5.8,-,N/A,,Overcast,150,2012-10-14 15:07:00
10:24 AM,75.2,71.6,89,30.07,10.0,SSE,9.2,-,N/A,,Mostly Cloudy,160,2012-10-14 15:24:00
10:53 AM,78.1,73.0,84,30.06,10.0,South,8.1,-,N/A,,Mostly Cloudy,170,2012-10-14 15:53:00
11:35 AM,78.8,73.4,83,30.07,10.0,SW,6.9,-,0.01,,Overcast,230,2012-10-14 16:35:00
11:42 AM,80.6,73.4,79,30.07,10.0,South,9.2,-,0.01,,Overcast,190,2012-10-14 16:42:00
11:53 AM,80.1,73.0,79,30.05,10.0,SW,5.8,-,0.01,,Overcast,220,2012-10-14 16:53:00
12:53 PM,81.0,72.0,74,30.03,10.0,West,6.9,-,N/A,,Overcast,280,2012-10-14 17:53:00
1:53 PM,84.0,71.1,65,30.00,10.0,West,11.5,-,0.00,,Partly Cloudy,270,2012-10-14 18:53:00
2:53 PM,86.0,68.0,55,30.00,10.0,WNW,6.9,-,N/A,,Clear,290,2012-10-14 19:53:00
3:53 PM,86.0,66.9,53,29.98,10.0,NNW,12.7,-,N/A,,Clear,340,2012-10-14 20:53:00
4:53 PM,86.0,64.9,49,29.98,10.0,NW,9.2,-,N/A,,Clear,310,2012-10-14 21:53:00
5:53 PM,84.9,62.1,46,29.98,10.0,NW,9.2,-,N/A,,Clear,310,2012-10-14 22:53:00
6:53 PM,80.1,59.0,48,29.98,10.0,NNW,8.1,-,N/A,,Clear,340,2012-10-14 23:53:00
7:53 PM,75.0,57.9,55,29.99,10.0,North,5.8,-,N/A,,Clear,350,2012-10-15 00:53:00
8:53 PM,72.0,57.9,61,30.02,10.0,North,5.8,-,N/A,,Clear,10,2012-10-15 01:53:00
9:53 PM,71.1,57.0,61,30.04,10.0,North,4.6,-,N/A,,Clear,360,2012-10-15 02:53:00
10:53 PM,68.0,57.9,70,30.05,10.0,North,6.9,-,N/A,,Clear,360,2012-10-15 03:53:00
11:53 PM,68.0,57.9,70,30.05,10.0,North,5.8,-,N/A,,Clear,10,2012-10-15 04:53:00